Location: Zagreb
(45.8000°N, 16.0000°E)
Time: 18:32:52
(UTC+02:00)

SR - Pass Details

Date: 13 August 2020
Orbit: 583 x 873 km, 66.7° (Epoch: 28 September)

Event Time Altitude Azimuth Distance (km) Brightness Sun altitude
Rises 05:19:49 0° 334° (NNW) 2,820 ? -6.2°
Reaches altitude 10° 05:22:22 10° 349° (NNW) 1,930 ? -5.8°
Maximum altitude 05:25:57 25° 45° (NE) 1,243 ? -5.3°
Drops below altitude 10° 05:29:39 10° 101° (E) 2,004 ? -4.7°
Sets 05:32:20 0° 115° (ESE) 2,954 ? -4.3°
